SWA1112 KCLE-KDCA

Flight info

Callsign SWA1112
Flight time 1h 1m
Altitude 39000
Route KKIDS1 NUSMM DCT BUCKO FRDMM6
Aircraft B737/M-SDE2E3FGHIRWXY/LB1

Departure

Time 2026-04-24 01:08
Airport Cleveland Hopkins International Airport (KCLE)

Arrival

Time 2026-04-24 02:09
Airport Ronald Reagan Washington National Airport (KDCA)
Time Latitude Longitude Altitude Speed Heading
2026-04-24 00:26 41.40763 -81.84267 760 ft 0 kts 139°
2026-04-24 00:26 41.40763 -81.84268 760 ft 0 kts 139°
2026-04-24 00:56 41.40770 -81.84276 762 ft 4 kts 139°
2026-04-24 00:56 41.40791 -81.84300 764 ft 4 kts 140°
2026-04-24 00:56 41.40812 -81.84320 756 ft 4 kts 155°
2026-04-24 00:57 41.40837 -81.84329 756 ft 4 kts 189°
2026-04-24 00:57 41.40853 -81.84320 756 ft 1 kts 225°
2026-04-24 00:57 41.40856 -81.84317 756 ft 0 kts 225°
2026-04-24 01:00 41.40850 -81.84325 754 ft 3 kts 225°
2026-04-24 01:00 41.40823 -81.84361 753 ft 8 kts 225°
2026-04-24 01:00 41.40772 -81.84414 754 ft 11 kts 233°
2026-04-24 01:01 41.40731 -81.84519 756 ft 15 kts 237°
2026-04-24 01:01 41.40667 -81.84622 756 ft 14 kts 230°
2026-04-24 01:01 41.40625 -81.84730 756 ft 13 kts 266°
2026-04-24 01:01 41.40631 -81.84850 756 ft 13 kts 274°
2026-04-24 01:02 41.40636 -81.84966 756 ft 12 kts 273°
2026-04-24 01:02 41.40640 -81.85080 756 ft 12 kts 273°
2026-04-24 01:02 41.40646 -81.85190 756 ft 12 kts 274°
2026-04-24 01:02 41.40651 -81.85298 755 ft 12 kts 274°
2026-04-24 01:03 41.40633 -81.85398 756 ft 11 kts 236°
2026-04-24 01:03 41.40586 -81.85477 756 ft 11 kts 230°
2026-04-24 01:03 41.40538 -81.85552 756 ft 11 kts 230°
2026-04-24 01:03 41.40491 -81.85626 756 ft 10 kts 230°
2026-04-24 01:04 41.40445 -81.85697 756 ft 10 kts 229°
2026-04-24 01:04 41.40401 -81.85766 756 ft 10 kts 229°
2026-04-24 01:04 41.40357 -81.85834 756 ft 10 kts 229°
2026-04-24 01:04 41.40302 -81.85912 756 ft 14 kts 217°
2026-04-24 01:05 41.40193 -81.85953 758 ft 18 kts 188°
2026-04-24 01:05 41.40095 -81.86043 758 ft 17 kts 232°
2026-04-24 01:05 41.40023 -81.86166 758 ft 17 kts 229°
2026-04-24 01:05 41.39949 -81.86282 758 ft 16 kts 230°
2026-04-24 01:06 41.39878 -81.86393 758 ft 15 kts 230°
2026-04-24 01:06 41.39810 -81.86501 760 ft 15 kts 230°
2026-04-24 01:06 41.39746 -81.86605 758 ft 14 kts 237°
2026-04-24 01:06 41.39764 -81.86716 758 ft 14 kts 318°
2026-04-24 01:07 41.39837 -81.86792 758 ft 13 kts 333°
2026-04-24 01:07 41.39916 -81.86763 757 ft 13 kts 50°
2026-04-24 01:07 41.40010 -81.86614 757 ft 58 kts 49°
2026-04-24 01:07 41.40530 -81.85792 761 ft 168 kts 49°
2026-04-24 01:08 41.41419 -81.84429 1430 ft 212 kts 49°
2026-04-24 01:08 41.42420 -81.82887 2678 ft 232 kts 50°
2026-04-24 01:08 41.43519 -81.81151 3478 ft 260 kts 50°
2026-04-24 01:08 41.44552 -81.79030 4001 ft 285 kts 68°
2026-04-24 01:09 41.45068 -81.76375 4598 ft 312 kts 83°
2026-04-24 01:09 41.45219 -81.73347 5123 ft 342 kts 90°
2026-04-24 01:09 41.45269 -81.70091 5797 ft 349 kts 87°
2026-04-24 01:09 41.45484 -81.67014 6125 ft 318 kts 90°
2026-04-24 01:10 41.45024 -81.64297 6354 ft 292 kts 118°
2026-04-24 01:10 41.43902 -81.62110 6635 ft 283 kts 134°
2026-04-24 01:10 41.42413 -81.60430 6908 ft 281 kts 147°
2026-04-24 01:10 41.40787 -81.58985 7177 ft 281 kts 149°
2026-04-24 01:11 41.39150 -81.57592 7454 ft 284 kts 149°
2026-04-24 01:11 41.37486 -81.56179 7746 ft 285 kts 149°
2026-04-24 01:11 41.35813 -81.54751 8039 ft 286 kts 149°
2026-04-24 01:11 41.34126 -81.53300 8923 ft 291 kts 148°
2026-04-24 01:12 41.32424 -81.51831 10112 ft 293 kts 148°
2026-04-24 01:12 41.30701 -81.50341 11154 ft 298 kts 148°
2026-04-24 01:12 41.28945 -81.48819 12192 ft 304 kts 148°
2026-04-24 01:12 41.27155 -81.47267 13245 ft 310 kts 148°
2026-04-24 01:13 41.25330 -81.45684 13825 ft 316 kts 148°
2026-04-24 01:13 41.23437 -81.44045 14040 ft 344 kts 148°
2026-04-24 01:13 41.21407 -81.42290 14034 ft 351 kts 148°
2026-04-24 01:13 41.19299 -81.40687 14033 ft 348 kts 157°
2026-04-24 01:14 41.17061 -81.39469 14045 ft 348 kts 160°
2026-04-24 01:14 41.14802 -81.38316 14035 ft 348 kts 160°
2026-04-24 01:14 41.12529 -81.37172 14194 ft 353 kts 160°
2026-04-24 01:14 41.10217 -81.36005 15153 ft 356 kts 160°
2026-04-24 01:15 41.07904 -81.34831 16300 ft 357 kts 161°
2026-04-24 01:15 41.05572 -81.33640 17314 ft 362 kts 161°
2026-04-24 01:15 41.03197 -81.32424 18273 ft 369 kts 161°
2026-04-24 01:15 41.00814 -81.31199 19102 ft 375 kts 161°
2026-04-24 01:16 40.98368 -81.29940 19984 ft 380 kts 161°
2026-04-24 01:16 40.95886 -81.28663 20827 ft 386 kts 161°
2026-04-24 01:16 40.93355 -81.27361 21580 ft 395 kts 161°
2026-04-24 01:16 40.90777 -81.26035 22390 ft 401 kts 161°
2026-04-24 01:17 40.88165 -81.24692 23239 ft 406 kts 161°
2026-04-24 01:17 40.85515 -81.23331 23969 ft 411 kts 162°
2026-04-24 01:17 40.82830 -81.21952 24626 ft 417 kts 162°
2026-04-24 01:17 40.80110 -81.20557 25272 ft 423 kts 162°
2026-04-24 01:18 40.77352 -81.19144 25913 ft 428 kts 162°
2026-04-24 01:18 40.74593 -81.17731 26544 ft 434 kts 162°
2026-04-24 01:18 40.71765 -81.16285 27133 ft 439 kts 162°
2026-04-24 01:18 40.68898 -81.14820 27715 ft 445 kts 162°
2026-04-24 01:19 40.65995 -81.13337 28289 ft 450 kts 162°
2026-04-24 01:19 40.63060 -81.11840 28844 ft 455 kts 162°
2026-04-24 01:19 40.60096 -81.10330 29353 ft 460 kts 162°
2026-04-24 01:19 40.57097 -81.08803 29886 ft 465 kts 162°
2026-04-24 01:20 40.54066 -81.07261 30303 ft 470 kts 162°
2026-04-24 01:20 40.51006 -81.05705 30742 ft 473 kts 162°
2026-04-24 01:20 40.47931 -81.04143 31239 ft 474 kts 162°
2026-04-24 01:20 40.44846 -81.02577 31679 ft 477 kts 162°
2026-04-24 01:21 40.41744 -81.01005 32094 ft 479 kts 162°
2026-04-24 01:21 40.38627 -80.99427 32488 ft 482 kts 162°
2026-04-24 01:21 40.35532 -80.97862 32915 ft 483 kts 162°
2026-04-24 01:21 40.32401 -80.96280 33472 ft 481 kts 162°
2026-04-24 01:22 40.29286 -80.94706 34075 ft 478 kts 162°
2026-04-24 01:22 40.26197 -80.93147 34582 ft 475 kts 163°
2026-04-24 01:22 40.23112 -80.91593 35022 ft 475 kts 163°
2026-04-24 01:22 40.20026 -80.90041 35410 ft 475 kts 163°
2026-04-24 01:23 40.16935 -80.88488 35783 ft 476 kts 163°
2026-04-24 01:23 40.13849 -80.86937 36245 ft 474 kts 163°
2026-04-24 01:23 40.10778 -80.85396 36726 ft 472 kts 163°
2026-04-24 01:23 40.07758 -80.83884 37114 ft 471 kts 162°
2026-04-24 01:24 40.04778 -80.82063 37463 ft 476 kts 153°
2026-04-24 01:24 40.02012 -80.79659 37884 ft 479 kts 144°
2026-04-24 01:24 39.99545 -80.76743 38348 ft 479 kts 136°
2026-04-24 01:24 39.97241 -80.73616 38781 ft 478 kts 135°
2026-04-24 01:25 39.94967 -80.70451 38994 ft 481 kts 135°
2026-04-24 01:25 39.90367 -80.64060 38987 ft 484 kts 135°
2026-04-24 01:26 39.86535 -80.58815 38963 ft 477 kts 135°
2026-04-24 01:26 39.81193 -80.51589 38990 ft 477 kts 135°
2026-04-24 01:27 39.76575 -80.45373 38988 ft 478 kts 135°
2026-04-24 01:27 39.72732 -80.40206 38986 ft 479 kts 135°
2026-04-24 01:28 39.68103 -80.33992 38989 ft 479 kts 136°
2026-04-24 01:28 39.63471 -80.27782 38988 ft 473 kts 135°
2026-04-24 01:28 39.61218 -80.24765 38962 ft 458 kts 136°
2026-04-24 01:29 39.59037 -80.21845 38977 ft 443 kts 135°
2026-04-24 01:29 39.56921 -80.19015 38980 ft 430 kts 136°
2026-04-24 01:29 39.54854 -80.16256 39008 ft 426 kts 135°
2026-04-24 01:30 39.50674 -80.10697 39003 ft 443 kts 136°
2026-04-24 01:30 39.48510 -80.07821 38684 ft 448 kts 135°
2026-04-24 01:30 39.46324 -80.04915 37848 ft 454 kts 135°
2026-04-24 01:30 39.44096 -80.01956 36828 ft 465 kts 135°
2026-04-24 01:31 39.41816 -79.98931 35828 ft 474 kts 135°
2026-04-24 01:31 39.39503 -79.95863 35027 ft 478 kts 135°
2026-04-24 01:31 39.37184 -79.92789 34483 ft 475 kts 135°
2026-04-24 01:31 39.34895 -79.89758 34077 ft 468 kts 135°
2026-04-24 01:32 39.32634 -79.86770 33641 ft 462 kts 135°
2026-04-24 01:32 39.30594 -79.83671 33071 ft 458 kts 121°
2026-04-24 01:32 39.29252 -79.79980 32501 ft 452 kts 103°
2026-04-24 01:32 39.28722 -79.76026 32043 ft 443 kts 92°
2026-04-24 01:33 39.28443 -79.72094 31593 ft 438 kts 91°
2026-04-24 01:33 39.28202 -79.68186 31096 ft 436 kts 91°
2026-04-24 01:33 39.27941 -79.64299 30595 ft 434 kts 92°
2026-04-24 01:33 39.27647 -79.60438 30134 ft 431 kts 92°
2026-04-24 01:34 39.27341 -79.56655 29625 ft 427 kts 93°
2026-04-24 01:34 39.27029 -79.52870 29154 ft 422 kts 93°
2026-04-24 01:34 39.26723 -79.49124 28621 ft 418 kts 93°
2026-04-24 01:34 39.26420 -79.45405 28089 ft 415 kts 93°
2026-04-24 01:35 39.26120 -79.41714 27564 ft 412 kts 94°
2026-04-24 01:35 39.25820 -79.38041 26727 ft 415 kts 94°
2026-04-24 01:35 39.25517 -79.34344 26424 ft 411 kts 94°
2026-04-24 01:35 39.25210 -79.30598 26054 ft 432 kts 94°
2026-04-24 01:36 39.24884 -79.26624 25678 ft 459 kts 95°
2026-04-24 01:36 39.24540 -79.22476 25283 ft 481 kts 95°
2026-04-24 01:36 39.24177 -79.18183 24851 ft 481 kts 95°
2026-04-24 01:36 39.23810 -79.13903 24447 ft 479 kts 95°
2026-04-24 01:37 39.23444 -79.09638 24030 ft 477 kts 95°
2026-04-24 01:37 39.23079 -79.05396 23637 ft 475 kts 95°
2026-04-24 01:37 39.22717 -79.01175 23170 ft 473 kts 95°
2026-04-24 01:37 39.22354 -78.96974 22732 ft 470 kts 95°
2026-04-24 01:38 39.21977 -78.92803 22325 ft 466 kts 96°
2026-04-24 01:38 39.21578 -78.88675 21928 ft 462 kts 96°
2026-04-24 01:38 39.21179 -78.84633 21543 ft 459 kts 96°
2026-04-24 01:38 39.20778 -78.80567 21158 ft 456 kts 96°
2026-04-24 01:39 39.20384 -78.76529 20764 ft 453 kts 96°
2026-04-24 01:39 39.19992 -78.72510 20399 ft 450 kts 96°
2026-04-24 01:39 39.19601 -78.68521 20026 ft 448 kts 96°
2026-04-24 01:39 39.19210 -78.64551 19651 ft 446 kts 96°
2026-04-24 01:40 39.18819 -78.60595 19275 ft 442 kts 96°
2026-04-24 01:40 39.18433 -78.56714 18900 ft 429 kts 96°
2026-04-24 01:40 39.18061 -78.52981 18536 ft 412 kts 96°
2026-04-24 01:40 39.17707 -78.49430 18191 ft 398 kts 96°
2026-04-24 01:41 39.17361 -78.45959 17819 ft 385 kts 96°
2026-04-24 01:41 39.17024 -78.42593 17469 ft 373 kts 96°
2026-04-24 01:41 39.16697 -78.39334 17161 ft 362 kts 96°
2026-04-24 01:41 39.16351 -78.36165 16844 ft 352 kts 99°
2026-04-24 01:42 39.15733 -78.33154 16574 ft 343 kts 107°
2026-04-24 01:42 39.14978 -78.30249 16298 ft 341 kts 108°
2026-04-24 01:42 39.14206 -78.27374 16016 ft 339 kts 108°
2026-04-24 01:42 39.13450 -78.24501 15747 ft 337 kts 108°
2026-04-24 01:43 39.12716 -78.21639 15479 ft 336 kts 107°
2026-04-24 01:43 39.12008 -78.18826 15197 ft 336 kts 107°
2026-04-24 01:43 39.11276 -78.15892 14936 ft 356 kts 107°
2026-04-24 01:43 39.10504 -78.12794 14629 ft 368 kts 107°
2026-04-24 01:44 39.09715 -78.09654 14333 ft 369 kts 108°
2026-04-24 01:44 39.08917 -78.06524 14055 ft 366 kts 108°
2026-04-24 01:44 39.08123 -78.03421 13764 ft 364 kts 108°
2026-04-24 01:44 39.07332 -78.00333 13441 ft 363 kts 108°
2026-04-24 01:45 39.06545 -77.97257 13120 ft 361 kts 108°
2026-04-24 01:45 39.05771 -77.94238 12818 ft 360 kts 108°
2026-04-24 01:45 39.04987 -77.91182 12522 ft 359 kts 108°
2026-04-24 01:45 39.04205 -77.88138 12208 ft 358 kts 108°
2026-04-24 01:46 39.03427 -77.85110 11927 ft 356 kts 108°
2026-04-24 01:46 39.02649 -77.82086 11632 ft 355 kts 108°
2026-04-24 01:46 39.01873 -77.79076 11348 ft 354 kts 108°
2026-04-24 01:46 39.01099 -77.76079 11055 ft 350 kts 108°
2026-04-24 01:47 39.00346 -77.73162 10760 ft 337 kts 108°
2026-04-24 01:47 38.99628 -77.70390 10491 ft 326 kts 108°
2026-04-24 01:47 38.98923 -77.67667 10228 ft 316 kts 108°
2026-04-24 01:47 38.98227 -77.65036 9985 ft 306 kts 111°
2026-04-24 01:48 38.97418 -77.62578 9768 ft 296 kts 115°
2026-04-24 01:48 38.96563 -77.60198 9480 ft 290 kts 115°
2026-04-24 01:48 38.95715 -77.57859 9253 ft 291 kts 114°
2026-04-24 01:48 38.94859 -77.55480 9023 ft 296 kts 114°
2026-04-24 01:49 38.93999 -77.53063 8788 ft 299 kts 114°
2026-04-24 01:49 38.93151 -77.50665 8545 ft 298 kts 114°
2026-04-24 01:49 38.92300 -77.48256 8304 ft 295 kts 114°
2026-04-24 01:49 38.91455 -77.45862 8069 ft 293 kts 114°
2026-04-24 01:50 38.90559 -77.43517 7772 ft 293 kts 118°
2026-04-24 01:50 38.89563 -77.41237 7463 ft 293 kts 119°
2026-04-24 01:50 38.88554 -77.38979 7158 ft 290 kts 119°
2026-04-24 01:50 38.87565 -77.36743 6849 ft 286 kts 119°
2026-04-24 01:51 38.86598 -77.34539 6549 ft 281 kts 118°
2026-04-24 01:51 38.85648 -77.32364 6250 ft 279 kts 118°
2026-04-24 01:51 38.84714 -77.30228 6051 ft 278 kts 119°
2026-04-24 01:51 38.83755 -77.28081 5980 ft 276 kts 119°
2026-04-24 01:52 38.82820 -77.26010 5956 ft 260 kts 119°
2026-04-24 01:52 38.81934 -77.24049 5957 ft 251 kts 119°
2026-04-24 01:52 38.81012 -77.22085 5988 ft 268 kts 127°
2026-04-24 01:52 38.79496 -77.20661 5987 ft 280 kts 164°
2026-04-24 01:53 38.77563 -77.20547 5974 ft 281 kts 198°
2026-04-24 01:53 38.75874 -77.21700 5981 ft 275 kts 225°
2026-04-24 01:53 38.74797 -77.23632 5956 ft 270 kts 251°
2026-04-24 01:53 38.74541 -77.25964 5974 ft 265 kts 278°
2026-04-24 01:54 38.75068 -77.28199 5983 ft 263 kts 295°
2026-04-24 01:54 38.75859 -77.30314 5975 ft 264 kts 297°
2026-04-24 01:54 38.76690 -77.32412 5965 ft 264 kts 297°
2026-04-24 01:54 38.77525 -77.34506 5971 ft 264 kts 297°
2026-04-24 01:55 38.78358 -77.36606 6005 ft 264 kts 297°
2026-04-24 01:55 38.79186 -77.38711 5998 ft 264 kts 297°
2026-04-24 01:55 38.79998 -77.40786 5989 ft 263 kts 297°
2026-04-24 01:55 38.80803 -77.42855 5756 ft 257 kts 297°
2026-04-24 01:56 38.81605 -77.44921 5212 ft 261 kts 297°
2026-04-24 01:56 38.82416 -77.47016 4743 ft 263 kts 297°
2026-04-24 01:56 38.83225 -77.49111 4268 ft 262 kts 296°
2026-04-24 01:56 38.84030 -77.51198 3856 ft 261 kts 296°
2026-04-24 01:57 38.84834 -77.53285 3406 ft 261 kts 297°
2026-04-24 01:57 38.85934 -77.55104 3073 ft 258 kts 323°
2026-04-24 01:57 38.87509 -77.55934 3012 ft 245 kts 353°
2026-04-24 01:57 38.89145 -77.55673 3017 ft 236 kts 16°
2026-04-24 01:58 38.90702 -77.54990 3009 ft 237 kts 23°
2026-04-24 01:58 38.91950 -77.53614 3004 ft 242 kts 60°
2026-04-24 01:58 38.92367 -77.51553 3027 ft 239 kts 83°
2026-04-24 01:58 38.92557 -77.49440 3011 ft 237 kts 82°
2026-04-24 01:59 38.92798 -77.47354 3000 ft 236 kts 80°
2026-04-24 01:59 38.93093 -77.45286 3001 ft 235 kts 78°
2026-04-24 01:59 38.93367 -77.43255 2996 ft 234 kts 89°
2026-04-24 01:59 38.92920 -77.41285 3020 ft 232 kts 123°
2026-04-24 02:00 38.91881 -77.39681 3012 ft 236 kts 134°
2026-04-24 02:00 38.90712 -77.38175 3023 ft 239 kts 135°
2026-04-24 02:00 38.89542 -77.36678 3025 ft 235 kts 135°
2026-04-24 02:00 38.88401 -77.35199 3025 ft 234 kts 135°
2026-04-24 02:01 38.87251 -77.33697 3018 ft 238 kts 135°
2026-04-24 02:01 38.86091 -77.32175 3008 ft 238 kts 135°
2026-04-24 02:01 38.84947 -77.30647 3007 ft 237 kts 134°
2026-04-24 02:01 38.83675 -77.29310 2982 ft 236 kts 147°
2026-04-24 02:02 38.82346 -77.28155 2789 ft 231 kts 147°
2026-04-24 02:02 38.81031 -77.27000 2516 ft 227 kts 146°
2026-04-24 02:02 38.79747 -77.25865 2475 ft 219 kts 146°
2026-04-24 02:02 38.78517 -77.24773 2489 ft 212 kts 146°
2026-04-24 02:03 38.76094 -77.22598 2475 ft 214 kts 142°
2026-04-24 02:03 38.75116 -77.21167 2476 ft 214 kts 129°
2026-04-24 02:03 38.74188 -77.19686 2475 ft 213 kts 130°
2026-04-24 02:04 38.73268 -77.18229 2469 ft 213 kts 130°
2026-04-24 02:04 38.72336 -77.16751 2472 ft 213 kts 130°
2026-04-24 02:04 38.71402 -77.15273 2472 ft 213 kts 130°
2026-04-24 02:04 38.70735 -77.13592 2459 ft 215 kts 101°
2026-04-24 02:05 38.70660 -77.11716 2376 ft 204 kts 88°
2026-04-24 02:05 38.70923 -77.10096 2240 ft 175 kts 73°
2026-04-24 02:05 38.71347 -77.08646 2020 ft 174 kts 68°
2026-04-24 02:05 38.71813 -77.07289 1979 ft 159 kts 63°
2026-04-24 02:06 38.72304 -77.06088 1959 ft 147 kts 62°
2026-04-24 02:06 38.72775 -77.04949 1959 ft 145 kts 62°
2026-04-24 02:06 38.73389 -77.03963 1956 ft 145 kts 28°
2026-04-24 02:06 38.74305 -77.03465 2009 ft 143 kts 21°
2026-04-24 02:07 38.75216 -77.03032 1742 ft 138 kts 12°
2026-04-24 02:07 38.76174 -77.02971 1584 ft 142 kts 358°
2026-04-24 02:07 38.77165 -77.02985 1384 ft 142 kts 355°
2026-04-24 02:07 38.78144 -77.03067 1191 ft 140 kts 354°
2026-04-24 02:08 38.79113 -77.03163 1014 ft 140 kts 354°
2026-04-24 02:08 38.80082 -77.03267 834 ft 139 kts 354°
2026-04-24 02:08 38.81046 -77.03392 643 ft 139 kts 354°
2026-04-24 02:08 38.82010 -77.03471 431 ft 138 kts 357°
2026-04-24 02:09 38.82954 -77.03550 262 ft 137 kts 354°
2026-04-24 02:09 38.83907 -77.03651 117 ft 137 kts 355°
2026-04-24 02:09 38.84844 -77.03751 26 ft 126 kts 355°
2026-04-24 02:09 38.85489 -77.03811 26 ft 45 kts 356°
2026-04-24 02:10 38.85694 -77.03833 25 ft 30 kts 356°
2026-04-24 02:10 38.85893 -77.03859 26 ft 28 kts 350°
2026-04-24 02:10 38.86058 -77.03887 23 ft 13 kts 341°
2026-04-24 02:10 38.86034 -77.03957 24 ft 13 kts 184°
2026-04-24 02:11 38.85946 -77.03975 23 ft 12 kts 194°
2026-04-24 02:11 38.85870 -77.03987 26 ft 11 kts 179°
2026-04-24 02:11 38.85796 -77.03980 27 ft 11 kts 175°
2026-04-24 02:11 38.85724 -77.03982 26 ft 10 kts 200°
2026-04-24 02:12 38.85693 -77.04055 24 ft 10 kts 281°
2026-04-24 02:12 38.85738 -77.04118 24 ft 10 kts 323°
2026-04-24 02:12 38.85792 -77.04169 23 ft 9 kts 323°
2026-04-24 02:12 38.85844 -77.04220 23 ft 9 kts 322°
2026-04-24 02:13 38.85870 -77.04289 23 ft 9 kts 264°
2026-04-24 02:13 38.85853 -77.04323 25 ft 0 kts 226°